Mattoon, IL

1:44 AM CST on November 19, 2019 (GMT -0600)
Coles County Memorial

Weather History for KMTO - September, 2019

Change the Weather History Date:

Friday, September 20, 2019

  Actual Average Record
Temperature  
Mean Temperature 77 °F 65 °F  
Max Temperature 88 °F 77 °F 93 °F (2017)
Min Temperature 65 °F 54 °F 36 °F (1991)
Degree Days  
Heating Degree Days 0 3  
Month to date heating degree days 0 21  
Since 1 July heating degree days 0 26  
Cooling Degree Days 12 3  
Month to date cooling degree days 161 97  
Year to date cooling degree days 1146 1017  
Growing Degree Days 26 (Base 50)    
Moisture  
Dew Point 65 °F    
Average Humidity 73    
Maximum Humidity 97    
Minimum Humidity 48    
Precipitation  
Precipitation T in 0.09 in 1.99 in (1986)
Month to date precipitation 0.47 2.06  
Year to date precipitation 25.60 27.96  
Sea Level Pressure  
Sea Level Pressure 30.10 in    
Wind  
Wind Speed 6 mph (SSE)    
Max Wind Speed 18 mph    
Max Gust Speed 29 mph    
Visibility 10 miles    
Events Rain    
T = Trace of Precipitation, MM = Missing Value Source: NWS Daily Summary

Daily Weather History Graph

Daily Weather History Graph

Search for Another Location

Airport or City:

Astronomy

Sep. 20, 2019 Rise Set
Actual Time 6:38 AM CDT 6:53 PM CDT
Civil Twilight 6:11 AM CDT 7:20 PM CDT
Nautical Twilight 5:40 AM CDT 7:52 PM CDT
Astronomical Twilight 5:08 AM CDT 8:24 PM CDT
Moon 10:45 PM CDT (9/20) 12:41 PM CDT (9/20)
Length of Visible Light 13h 08m
Length of Day
12h 15m
Waning Gibbous, 65% of the Moon is Illuminated
Sep 20
Waning Gibbous
Sep 21
Last Quarter
Sep 28
New
Oct 5
First Quarter
Oct 13
Full

Hourly Weather History & Observations

Time (CDT) Temp. Heat Index Dew Point Humidity Pressure Visibility Wind Dir Wind Speed Gust Speed Precip Events Conditions
12:53 AM 69.1 °F - 62.1 °F 78% 30.06 in 10.0 mi South 4.6 mph - N/A   Partly Cloudy
1:53 AM 66.9 °F - 62.1 °F 84% 30.06 in 10.0 mi SSE 4.6 mph - N/A   Clear
2:53 AM 68.0 °F - 62.1 °F 81% 30.06 in 10.0 mi South 5.8 mph - N/A   Clear
3:53 AM 70.0 °F - 64.0 °F 81% 30.06 in 10.0 mi South 4.6 mph - N/A   Clear
4:53 AM 69.1 °F - 64.9 °F 87% 30.07 in 10.0 mi South 4.6 mph - N/A   Clear
5:53 AM 70.0 °F - 63.0 °F 78% 30.09 in 10.0 mi South 4.6 mph - N/A   Overcast
6:53 AM 68.0 °F - 64.0 °F 87% 30.10 in 9.0 mi Calm Calm - N/A   Mostly Cloudy
7:53 AM 66.9 °F - 63.0 °F 87% 30.13 in 8.0 mi NE 5.8 mph - N/A   Partly Cloudy
8:53 AM 71.1 °F - 64.0 °F 78% 30.14 in 10.0 mi East 5.8 mph - N/A   Mostly Cloudy
9:53 AM 77.0 °F - 64.0 °F 64% 30.13 in 10.0 mi ESE 5.8 mph - N/A   Clear
10:53 AM 79.0 °F - 64.0 °F 60% 30.14 in 10.0 mi SSE 5.8 mph - N/A   Mostly Cloudy
11:53 AM 82.0 °F 84.5 °F 66.9 °F 60% 30.13 in 10.0 mi SE 8.1 mph - N/A   Partly Cloudy
12:53 PM 84.9 °F 85.9 °F 63.0 °F 48% 30.12 in 10.0 mi SSE 8.1 mph - N/A   Clear
1:53 PM 86.0 °F 88.2 °F 66.0 °F 51% 30.11 in 10.0 mi SSW 12.7 mph - N/A   Clear
2:53 PM 87.1 °F 91.3 °F 69.1 °F 55% 30.09 in 10.0 mi SW 11.5 mph - N/A   Partly Cloudy
3:53 PM 87.1 °F 89.9 °F 66.9 °F 51% 30.08 in 10.0 mi Variable 6.9 mph - N/A   Clear
4:53 PM 86.0 °F 89.4 °F 68.0 °F 55% 30.07 in 10.0 mi SSW 3.5 mph - N/A   Scattered Clouds
5:53 PM 84.0 °F 87.8 °F 69.1 °F 61% 30.08 in 10.0 mi South 4.6 mph - N/A   Clear
6:53 PM 78.1 °F - 66.0 °F 66% 30.09 in 10.0 mi SSE 15.0 mph 27.6 mph 0.00 in Rain Light Rain
7:53 PM 72.0 °F - 66.9 °F 84% 30.10 in 10.0 mi SSE 4.6 mph - 0.00 in   Clear
8:53 PM 75.0 °F - 68.0 °F 79% 30.12 in 10.0 mi South 5.8 mph - N/A   Clear
9:53 PM 75.0 °F - 68.0 °F 79% 30.13 in 10.0 mi SW 4.6 mph - N/A   Clear
10:53 PM 70.0 °F - 68.0 °F 93% 30.13 in 9.0 mi SSE 4.6 mph - N/A   Clear
11:53 PM 72.0 °F - 68.0 °F 87% 30.13 in 10.0 mi SSW 4.6 mph - N/A   Clear